Flag for Belarus Weather past 2 weeks in Minsk, Belarus

Now
28 °F

Light snow. Ice fog.


Feels Like: 25 °F
Forecast: 28 / 31 °F
Wind: 3 mph from South

Location: Loshitsa / Minsk International 1

Current Time: Jan 27, 2015 at 8:55:53 AM

Latest Report: Jan 27, 2015 at 8:30 AM


Visibility: 2 mi

Pressure: 29.98 "Hg

Humidity: 100%

Dew point: 28 °F

Location of MinskLocation

Historic Weather in Minsk — Graph

°F

Minsk temperature yesterday

Maximum temperature yesterday: 30 °F (at 5:00 PM)
Minimum temperature yesterday: 21 °F (at 7:00 AM)
Average temperature yesterday: 27 °F

Past Weeks' High & Low Weather Summary

 TemperatureHumidityPressure
High41 °F (Jan 13, 3:00 PM)100% (Jan 13, 8:00 AM)30.21 "Hg (Jan 13, 8:00 AM)
Low21 °F (Jan 26, 7:00 AM)64% (Jan 12, 2:00 PM)29.27 "Hg (Jan 12, 7:00 AM)
Average32 °F92%29.99 "Hg
* Reported Jan 12 7:00 AM — Jan 27 7:00 AM, Minsk, Weather by CustomWeather, © 2014

Note: Actual official high and low records may vary slightly from our data, if they occured in-between our weather recording intervals... More about our weather records

Advertising

Minsk weather history for previous 24 hours

 ConditionsComfort  
Time TempWeatherWind HumidityBarometerVisibility
7:00 AM
Jan 27
28 °FLight snow. Ice fog.1 mph100%29.98 "Hg1 mi
8:30 PM
Jan 26
30 °FLight freezing rain. Ice fog.3 mph93%30.09 "Hg2 mi
8:00 PM30 °FIce fog.3 mph93%30.09 "Hg3 mi
7:30 PM30 °FIce fog.3 mph93%30.09 "Hg3 mi
7:00 PM30 °FIce fog.3 mph93%30.09 "Hg3 mi
6:30 PM30 °FIce fog.3 mph93%30.09 "Hg3 mi
6:00 PM30 °FIce fog.3 mph93%30.09 "Hg3 mi
5:30 PM30 °FIce fog.3 mph93%30.09 "Hg2 mi
5:00 PM30 °FIce fog.3 mph93%30.09 "Hg2 mi
4:30 PM28 °FIce fog.1 mph100%30.09 "Hg1 mi
4:00 PM28 °FIce fog.1 mph100%30.09 "Hg1 mi
3:30 PM28 °FIce fog.1 mph100%30.12 "Hg2 mi
3:00 PM28 °FIce fog.No wind100%30.12 "Hg2 mi
2:30 PM28 °FIce fog.No wind93%30.12 "Hg3 mi
2:00 PM28 °FIce fog.No wind93%30.12 "Hg3 mi
1:30 PM27 °FIce fog.1 mph100%30.12 "Hg3 mi
1:00 PM27 °FIce fog.1 mph100%30.12 "Hg2 mi
12:30 PM27 °FIce fog.No wind93%30.12 "Hg2 mi
12:00 PM27 °FIce fog.No wind93%30.12 "Hg2 mi
11:30 AM25 °FIce fog.No wind93%30.12 "Hg1 mi
11:00 AM25 °FLight snow. Ice fog.No wind93%30.12 "Hg1 mi
10:30 AM25 °FLight snow. Ice fog.No wind100%30.12 "Hg1 mi
10:00 AM25 °FLight snow. Ice fog.No wind100%30.12 "Hg1 mi
9:30 AM23 °FLight snow. Ice fog.1 mph93%30.12 "Hg1 mi
9:00 AM23 °FLight freezing rain. Ice fog.1 mph93%30.12 "Hg1 mi
8:30 AM23 °FLight freezing rain. Ice fog.1 mph93%30.12 "Hg1 mi
8:00 AM23 °FCold.1 mph93%30.12 "Hg1 mi
Weather by CustomWeather, © 2014

See weather overviewHow to use our weather pages